DateTimeUTC,F1_A11,F1_S11,BsB_S11,BsG_S11,BsR_S11,BbsB_S11,BbsG_S11,BbsR_S11,BaB_A11,BaG_A11,BaR_A11,Tu_S11,T_S11,Uu_S11,U_S11,P_S11,T1_A11
2021-05-27T18:00:00Z,00000200,20000000,,,,,,,-000.05,-000.08,-000.34,20.0,26.4,04.9,03.3,0679.9,31.1
2021-05-27T18:01:00Z,00000200,20000000,,,,,,,0000.36,0000.13,-000.03,20.0,26.4,04.9,03.3,0679.9,31.2
2021-05-27T18:02:00Z,00000200,20000000,,,,,,,0000.35,0000.23,0000.58,20.0,26.4,04.8,03.2,0679.8,31.1
2021-05-27T18:03:00Z,00000200,60000000,,,,,,,0000.25,0000.57,0000.34,20.0,26.4,04.7,03.2,0679.8,31.1
2021-05-27T18:04:00Z,00000200,40000000,0002.93,0002.11,0001.52,0000.21,0000.56,0000.43,0001.59,0001.49,0001.12,20.1,26.3,05.0,03.4,0680.7,31.2
2021-05-27T18:05:00Z,00000200,00000000,0003.79,0002.07,0001.20,0000.61,0000.36,0000.25,0000.87,0000.89,0000.99,20.2,26.2,05.2,03.6,0680.7,31.2
2021-05-27T18:06:00Z,00000200,00000000,0003.57,0002.30,0001.67,0000.50,0000.36,0000.51,0000.95,0000.66,0000.84,20.2,26.2,05.2,03.6,0680.8,31.1
2021-05-27T18:07:00Z,00000200,00000000,0003.05,0001.94,0001.04,0000.48,0000.51,0000.44,0001.14,0001.34,0000.70,20.2,26.2,05.2,03.6,0680.8,31.2
2021-05-27T18:08:00Z,00000200,00000000,0002.58,0002.11,0001.63,0000.37,0000.23,0000.31,0000.82,0000.96,0000.95,20.2,26.2,05.3,03.7,0680.9,31.2
2021-05-27T18:09:00Z,00000200,00000000,0003.47,0001.91,0001.13,0000.38,0000.29,0000.27,0000.93,0000.90,0000.52,20.2,26.2,05.4,03.8,0680.9,31.2
2021-05-27T18:10:00Z,00000200,00000000,0003.08,0002.15,0001.51,-000.02,0000.26,0000.41,0000.96,0000.52,0000.53,20.3,26.2,05.5,03.8,0680.9,31.2
2021-05-27T18:11:00Z,00000200,00000000,0002.96,0002.07,0001.58,0000.25,0000.13,0000.44,0000.94,0000.92,0000.52,20.3,26.3,05.5,03.8,0680.9,31.2
2021-05-27T18:12:00Z,00000200,00000000,0003.66,0002.16,0001.43,-000.02,0000.44,0000.65,0001.10,0001.02,0001.01,20.3,26.3,05.5,03.9,0680.9,31.2
2021-05-27T18:13:00Z,00000200,00000000,0002.85,0002.07,0001.12,0000.86,0000.50,0000.25,0000.90,0000.96,0000.68,20.3,26.3,05.4,03.8,0680.8,31.2
2021-05-27T18:14:00Z,00000200,00000000,0003.26,0002.23,0001.74,0000.77,0000.06,0000.81,0001.01,0000.71,0000.81,20.3,26.3,05.5,03.8,0680.8,31.2
2021-05-27T18:15:00Z,00000200,00000000,0002.96,0001.82,0001.28,0000.60,0000.40,0000.33,0000.48,0000.86,0000.11,20.3,26.3,05.4,03.8,0680.8,31.2
2021-05-27T18:16:00Z,00000200,00000000,0003.80,0002.41,0001.37,0000.61,0000.31,0000.24,0001.27,0000.86,0000.94,20.3,26.3,05.5,03.9,0680.8,31.2
2021-05-27T18:17:00Z,00000200,00000000,0003.67,0002.04,0001.63,0000.50,0000.39,0000.30,0000.72,0000.60,0000.55,20.4,26.3,05.4,03.8,0680.8,31.2
2021-05-27T18:18:00Z,00000200,00000000,0003.07,0002.27,0001.82,0000.30,-000.10,0000.42,0001.11,0000.91,0000.46,20.4,26.3,05.6,03.9,0680.7,31.2
2021-05-27T18:19:00Z,00000200,00000000,0002.86,0002.12,0001.32,0000.41,0000.20,0000.27,0001.14,0000.78,0000.69,20.4,26.3,05.5,03.9,0680.7,31.2
2021-05-27T18:20:00Z,00000200,00000000,0002.87,0002.07,0001.17,0000.31,0000.20,0000.29,0000.95,0001.13,0000.98,20.4,26.3,05.6,03.9,0680.6,31.2
2021-05-27T18:21:00Z,00000200,00000000,0002.94,0002.49,0001.41,0000.07,0000.22,0000.85,0000.67,0000.80,0000.65,20.4,26.3,05.5,03.8,0680.6,31.2
2021-05-27T18:22:00Z,00000200,00000000,0002.90,0001.81,0001.38,0000.75,0000.45,0000.14,0000.90,0000.91,0000.33,20.5,26.3,05.5,03.8,0680.5,31.2
2021-05-27T18:23:00Z,00000200,00000000,0003.36,0002.20,0001.55,0000.82,0000.43,0000.37,0000.86,0000.72,0000.66,20.5,26.4,05.5,03.8,0680.5,31.2
2021-05-27T18:24:00Z,00000200,00000000,0003.48,0001.67,0001.03,0000.63,0000.15,0000.12,0000.95,0000.95,0000.66,20.5,26.4,05.5,03.8,0680.5,31.2
2021-05-27T18:25:00Z,00000200,00000000,0002.92,0002.16,0001.43,0000.73,0000.63,0000.35,0001.15,0001.08,0000.94,20.5,26.4,05.5,03.9,0680.6,31.2
2021-05-27T18:26:00Z,00000200,00000000,0003.08,0002.03,0001.41,0000.22,0000.18,0000.33,0000.72,0000.81,0000.93,20.5,26.4,05.5,03.9,0680.6,31.2
2021-05-27T18:27:00Z,00000200,00000000,0002.94,0001.96,0001.43,0000.18,0000.29,0000.27,0000.78,0000.57,0000.02,20.5,26.4,05.5,03.9,0680.6,31.2
2021-05-27T18:28:00Z,00000200,00000000,0002.69,0002.00,0001.54,-000.08,0000.46,0000.47,0000.85,0000.28,0000.77,20.5,26.4,05.4,03.8,0680.6,31.2
2021-05-27T18:29:00Z,00000200,00000000,0003.06,0001.96,0001.41,0000.28,0000.36,0000.03,0000.74,0000.87,0000.10,20.6,26.4,05.3,03.7,0680.6,31.2
2021-05-27T18:30:00Z,00000200,00000000,0003.12,0001.91,0001.08,0000.26,0000.64,0000.22,0001.33,0000.94,0001.29,20.6,26.4,05.4,03.8,0680.6,31.2
2021-05-27T18:31:00Z,00000200,00000000,0003.43,0001.80,0001.42,0000.35,0000.46,0000.21,0000.34,0000.55,0000.12,20.6,26.4,05.4,03.8,0680.7,31.2
2021-05-27T18:32:00Z,00000200,00000000,0003.08,0002.25,0001.25,0000.34,0000.56,0000.65,0000.85,0000.47,0000.67,20.6,26.4,05.4,03.8,0680.7,31.2
2021-05-27T18:33:00Z,00000200,00000000,0003.32,0001.99,0001.47,-000.20,0000.31,0000.45,0000.52,0001.13,0000.62,20.6,26.4,05.3,03.8,0680.7,31.2
2021-05-27T18:34:00Z,00000200,00000000,0002.39,0001.90,0001.45,0000.23,0000.31,0000.24,0000.76,0000.47,0000.42,20.6,26.4,05.2,03.7,0680.7,31.2
2021-05-27T18:35:00Z,00000200,00000000,0003.31,0002.18,0001.42,-000.12,0000.29,0000.61,0000.98,0000.69,0000.35,20.6,26.4,05.2,03.7,0680.7,31.2
2021-05-27T18:36:00Z,00000200,00000000,0002.83,0002.29,0001.18,0000.10,0000.36,0000.28,0001.41,0001.04,0000.76,20.6,26.4,05.3,03.7,0680.7,31.2
2021-05-27T18:37:00Z,00000200,00000000,0003.22,0001.94,0001.30,0000.44,0000.65,0000.26,0000.91,0001.25,0000.71,20.6,26.4,05.3,03.8,0680.7,31.2
2021-05-27T18:38:00Z,00000200,00000000,0003.23,0001.95,0001.28,0000.48,0000.16,0000.42,0000.11,0000.00,0000.02,20.6,26.4,05.2,03.6,0680.7,31.2
2021-05-27T18:39:00Z,00000200,00000000,0003.16,0002.06,0001.43,0000.54,0000.22,0000.51,0000.94,0000.56,0000.78,20.6,26.4,05.0,03.5,0680.7,31.2
2021-05-27T18:40:00Z,00000200,00000000,0002.75,0001.75,0001.04,0000.09,0000.28,0000.02,0000.48,0000.72,0000.30,20.6,26.4,05.1,03.6,0680.7,31.1
2021-05-27T18:41:00Z,00000200,00000000,0003.19,0001.88,0001.29,0000.47,0000.24,0000.37,0001.13,0000.70,0000.69,20.6,26.4,05.0,03.5,0680.8,31.2
2021-05-27T18:42:00Z,00000200,00000000,0002.48,0001.95,0001.00,0000.13,0000.26,0000.45,0000.44,0000.69,0000.70,20.6,26.4,04.9,03.4,0680.8,31.2
2021-05-27T18:43:00Z,00000200,00000000,0003.30,0001.75,0001.40,0000.76,0000.21,0000.12,0000.98,0000.80,0000.43,20.6,26.4,05.0,03.5,0680.8,31.2
2021-05-27T18:44:00Z,00000200,00000000,0002.95,0002.22,0001.19,0000.11,0000.35,0000.41,0000.83,0000.94,0000.83,20.6,26.5,05.0,03.5,0680.8,31.2
2021-05-27T18:45:00Z,00000200,00000000,0003.45,0002.01,0001.65,0000.35,0000.54,0000.35,0000.76,0000.31,0000.33,20.6,26.5,04.9,03.5,0680.8,31.1
2021-05-27T18:46:00Z,00000200,00000000,0003.16,0002.08,0001.18,0000.01,0000.29,-000.01,0001.05,0001.40,0000.72,20.6,26.4,05.0,03.5,0680.8,31.2
2021-05-27T18:47:00Z,00000200,00000000,0003.13,0002.03,0001.23,0000.27,0000.22,0000.35,0001.54,0001.07,0001.21,20.6,26.4,05.1,03.6,0680.8,31.2
2021-05-27T18:48:00Z,00000200,00000000,0003.07,0002.10,0001.23,0000.54,0000.24,0000.26,0000.46,0000.63,0000.57,20.6,26.4,05.2,03.6,0680.8,31.1
2021-05-27T18:49:00Z,00000200,00000000,0002.67,0001.84,0001.32,0000.08,0000.24,0000.56,0000.27,0000.47,-000.08,20.6,26.4,05.2,03.6,0680.8,31.2
2021-05-27T18:50:00Z,00000200,00000000,0002.60,0001.89,0001.37,0000.64,0000.27,0000.63,0001.04,0000.79,0000.61,20.6,26.4,04.9,03.4,0680.8,31.2
2021-05-27T18:51:00Z,00000200,00000000,0003.32,0002.12,0001.50,0000.38,0000.42,0000.59,0000.83,0000.69,0000.95,20.5,26.4,04.9,03.4,0680.8,31.1
2021-05-27T18:52:00Z,00000200,00000000,0002.57,0002.15,0001.26,0000.12,0000.38,-000.11,0001.53,0001.23,0000.71,20.5,26.4,05.0,03.5,0680.8,31.2
2021-05-27T18:53:00Z,00000200,00000000,0003.72,0002.27,0001.46,0000.74,0000.31,0000.47,0000.27,0000.55,0000.11,20.5,26.4,05.1,03.6,0680.8,31.2
2021-05-27T18:54:00Z,00000200,00000000,0003.22,0001.93,0001.26,-000.08,0000.34,0000.54,0001.56,0001.44,0001.82,20.5,26.4,05.2,03.6,0680.8,31.2
2021-05-27T18:55:00Z,00000200,00000000,0003.18,0001.98,0001.40,0000.50,0000.32,0000.31,0000.72,0000.24,0000.01,20.5,26.4,05.3,03.7,0680.8,31.2
2021-05-27T18:56:00Z,00000200,00000000,0004.29,0002.21,0001.40,0000.57,0000.28,0000.28,0000.46,0000.88,0000.68,20.5,26.4,05.1,03.6,0680.8,31.1
2021-05-27T18:57:00Z,00000200,40000000,,,,,,,0000.49,0000.36,0000.29,20.6,26.5,05.0,03.5,0680.7,31.2
2021-05-27T18:58:00Z,00000200,60000000,,,,,,,0000.10,-000.04,-000.24,20.4,26.5,04.8,03.3,0679.7,31.2
2021-05-27T18:59:00Z,00000200,20000000,,,,,,,-000.25,-000.02,-000.06,20.4,26.6,04.8,03.3,0679.7,31.2
